Location: B�hl
(48.6968°N, 8.1352°E)
Time: 02:49:34
(UTC+00:00)

Cosmos 1733 Rocket - Pass Details

Date: 08 March 2021
Orbit: 604 x 627 km, 82.5° (Epoch: 12 April)

Event Time Altitude Azimuth Distance (km) Brightness Sun altitude
Rises 19:57:09 0° 204° (SSW) 2,856 6.5 -25.8°
Reaches altitude 10° 19:59:25 10° 211° (SSW) 1,960 5.7 -26.1°
Maximum altitude 20:03:35 45° 284° (WNW) 836 4.0 -26.7°
Drops below altitude 10° 20:07:50 10° 359° (N) 1,989 6.0 -27.4°
Sets 20:10:10 0° 5° (N) 2,903 6.8 -27.7°
